N9290N KSFB-

Flight info

Callsign N9290N
Flight time N/A
Altitude VFR
Route
Aircraft PA28/L-DOV/C

Departure

Time 2026-05-03 21:40
Airport Orlando Sanford International Airport (KSFB)

Arrival

Time N/A
Airport -
Time Latitude Longitude Altitude Speed Heading
2026-05-03 21:34 28.77199 -81.25008 56 ft 0 kts 84°
2026-05-03 21:35 28.77200 -81.25006 56 ft 3 kts 72°
2026-05-03 21:35 28.77272 -81.25017 56 ft 15 kts 345°
2026-05-03 21:35 28.77379 -81.25009 56 ft 14 kts 15°
2026-05-03 21:35 28.77458 -81.24969 56 ft 10 kts 34°
2026-05-03 21:36 28.77512 -81.24926 55 ft 9 kts 37°
2026-05-03 21:36 28.77569 -81.24879 54 ft 11 kts 32°
2026-05-03 21:36 28.77606 -81.24850 54 ft 0 kts 34°
2026-05-03 21:37 28.77613 -81.24842 54 ft 7 kts 43°
2026-05-03 21:37 28.77678 -81.24751 53 ft 17 kts 47°
2026-05-03 21:37 28.77745 -81.24657 52 ft 13 kts 55°
2026-05-03 21:38 28.77759 -81.24571 52 ft 9 kts 87°
2026-05-03 21:38 28.77793 -81.24528 51 ft 7 kts 358°
2026-05-03 21:38 28.77799 -81.24528 51 ft 0 kts
2026-05-03 21:39 28.77836 -81.24514 51 ft 14 kts 54°
2026-05-03 21:39 28.77848 -81.24212 51 ft 62 kts 87°
2026-05-03 21:40 28.77814 -81.23682 166 ft 72 kts 87°
2026-05-03 21:40 28.77778 -81.23070 294 ft 79 kts 87°
2026-05-03 21:40 28.77714 -81.22437 481 ft 81 kts 94°
2026-05-03 21:40 28.77626 -81.21877 675 ft 78 kts 89°
2026-05-03 21:41 28.77502 -81.21164 654 ft 98 kts 97°
2026-05-03 21:41 28.77354 -81.20376 717 ft 103 kts 96°
2026-05-03 21:41 28.77199 -81.19557 760 ft 106 kts 97°
2026-05-03 21:41 28.77046 -81.18726 845 ft 105 kts 96°
2026-05-03 21:42 28.76896 -81.17924 955 ft 102 kts 96°
2026-05-03 21:42 28.76746 -81.17153 1106 ft 97 kts 96°
2026-05-03 21:42 28.76587 -81.16410 1254 ft 94 kts 96°
2026-05-03 21:42 28.76431 -81.15699 1403 ft 91 kts 96°
2026-05-03 21:43 28.76273 -81.15005 1542 ft 90 kts 95°
2026-05-03 21:43 28.76119 -81.14319 1688 ft 88 kts 95°
2026-05-03 21:43 28.75917 -81.13650 1837 ft 90 kts 108°
2026-05-03 21:43 28.75588 -81.13036 1979 ft 91 kts 114°
2026-05-03 21:44 28.75232 -81.12440 2129 ft 90 kts 115°
2026-05-03 21:44 28.74869 -81.11847 2273 ft 90 kts 114°
2026-05-03 21:44 28.74508 -81.11259 2418 ft 90 kts 114°
2026-05-03 21:44 28.74155 -81.10676 2562 ft 89 kts 113°
2026-05-03 21:45 28.74035 -81.10473 2555 ft 95 kts 114°
2026-05-03 21:46 28.73772 -81.09888 2462 ft 171 kts 112°
2026-05-03 21:46 28.73200 -81.08581 2443 ft 191 kts 126°
2026-05-03 21:46 28.72431 -81.07311 2464 ft 198 kts 134°
2026-05-03 21:46 28.71581 -81.06044 2459 ft 203 kts 137°
2026-05-03 21:47 28.70719 -81.04762 2467 ft 206 kts 133°
2026-05-03 21:47 28.69860 -81.03451 2464 ft 208 kts 135°
2026-05-03 21:47 28.69014 -81.02123 2448 ft 207 kts 134°